Location: Cicognara
(44.9500°N, 10.4667°E)
Time: 10:36:46
(UTC+00:00)

Cosmos 1908 - Visible Passes

Search period start: 18 October 2021 00:00
Search period end: 28 October 2021 00:00
Orbit: 510 x 528 km, 82.5° (Epoch: 17 October)

Date Brightness Start Highest point End Pass type
(mag) Time Alt. Az. Time Alt. Az. Time Alt. Az.
18 Oct 6.5 03:22:32 10° NE 03:24:18 13° ENE 03:26:03 10° E visible
18 Oct 3.4 04:56:42 10° NNW 05:00:25 49° W 05:04:05 10° S visible
18 Oct 3.3 17:13:27 10° S 17:17:13 52° E 17:21:01 10° NNE visible
18 Oct 6.6 18:51:36 10° W 18:53:21 13° WNW 18:55:07 10° NW visible
19 Oct 6.7 03:09:10 10° NE 03:10:15 11° ENE 03:11:20 10° E visible
19 Oct 3.2 04:42:41 10° NNW 04:46:28 59° W 04:50:12 10° S visible
19 Oct 3.5 16:59:35 10° SSE 17:03:17 44° E 17:06:59 10° NNE visible
19 Oct 6.4 18:37:07 10° WSW 18:39:19 15° WNW 18:41:32 10° NW visible
20 Oct 3.1 04:28:42 10° NNW 04:32:31 71° W 04:36:17 10° S visible
20 Oct 3.8 16:45:45 10° SSE 16:49:21 37° E 16:52:56 10° NNE visible
20 Oct 6.3 18:22:44 10° WSW 18:25:18 17° WNW 18:27:52 10° NNW visible
21 Oct 3.1 04:14:43 10° N 04:18:34 85° WSW 04:22:20 10° S visible
21 Oct 6.1 18:08:26 10° WSW 18:11:16 19° WNW 18:14:07 10° NNW visible
22 Oct 3.2 04:00:45 10° N 04:04:35 81° E 04:08:22 10° S visible
22 Oct 5.9 17:54:10 10° SW 17:57:15 22° WNW 18:00:20 10° NNW visible
23 Oct 3.4 03:46:48 10° N 03:50:37 68° E 03:54:22 10° SSE visible
23 Oct 5.6 17:39:58 10° SW 17:43:15 26° WNW 17:46:31 10° NNW visible
24 Oct 3.8 03:32:51 10° N 03:36:38 56° E 03:40:21 10° SSE visible
24 Oct 5.1 05:11:04 10° WNW 05:11:52 11° W 05:12:40 10° W visible
24 Oct 5.3 17:25:49 10° SW 17:29:14 30° WNW 17:32:39 10° NNW visible
25 Oct 4.2 03:23:00 45° E 03:23:00 45° E 03:26:18 10° SSE visible
25 Oct 5.0 04:58:20 12° W 04:58:20 12° W 04:59:36 10° WSW visible
25 Oct 5.0 17:11:40 10° SW 17:15:13 35° WNW 17:18:47 10° N visible
26 Oct 4.7 16:57:34 10° SSW 17:01:13 41° WNW 17:04:53 10° N visible
27 Oct 4.4 16:43:29 10° SSW 16:47:13 48° WNW 16:50:58 10° N visible
